This is the latest recevied weather packets stored in our database for station/object DC0PP-10. If no packets are shown the sender has not sent any weather packets the latest 1 day(s).
| Time | Temp. | Humidity | Pressure | Rain* | Wind** | Luminosity | Snow |
|---|---|---|---|---|---|---|---|
| 1777784146 | 15.56° C | 84% | 1016.4 hPa | - | - | - | - |
| 1777783245 | 16.11° C | 78% | 1016.1 hPa | - | - | - | - |
| 1777782345 | 15.56° C | 78% | 1017.1 hPa | - | - | - | - |
| 1777781444 | 15.56° C | 73% | 1016.7 hPa | - | - | - | - |
| 1777780544 | 15.56° C | 69% | 1016.8 hPa | - | - | - | - |
| 1777779644 | 15.56° C | 72% | 1016.8 hPa | - | - | - | - |
| 1777778744 | 15.56° C | 70% | 1016.7 hPa | - | - | - | - |
| 1777777844 | 15.56° C | 67% | 1016.9 hPa | - | - | - | - |
| 1777776944 | 15.56° C | 70% | 1017 hPa | - | - | - | - |
| 1777776044 | 15.56° C | 70% | 1017.1 hPa | - | - | - | - |
| 1777775143 | 15.56° C | 73% | 1017 hPa | - | - | - | - |
| 1777774243 | 16.11° C | 71% | 1017 hPa | - | - | - | - |
| 1777773343 | 15.56° C | 74% | 1017.1 hPa | - | - | - | - |
| 1777772443 | 15.56° C | 73% | 1017.1 hPa | - | - | - | - |
| 1777771543 | 16.11° C | 72% | 1017.1 hPa | - | - | - | - |
| 1777770643 | 16.11° C | 73% | 1017.2 hPa | - | - | - | - |
| 1777769743 | 15.56° C | 76% | 1017.2 hPa | - | - | - | - |
| 1777768842 | 15.56° C | 75% | 1017.4 hPa | - | - | - | - |
| 1777767947 | 16.67° C | 71% | 1017.4 hPa | - | - | - | - |
| 1777767046 | 16.67° C | 72% | 1017.5 hPa | - | - | - | - |
| 1777766146 | 16.67° C | 72% | 1017.5 hPa | - | - | - | - |
| 1777765246 | 16.67° C | 70% | 1017.7 hPa | - | - | - | - |
| 1777764346 | 17.22° C | 70% | 1017.7 hPa | - | - | - | - |
| 1777763445 | 17.22° C | 71% | 1017.8 hPa | - | - | - | - |
| 1777762545 | 17.22° C | 69% | 1017.8 hPa | - | - | - | - |
* Rain since midnight (hover to see other rain measurements)
** Current wind speed in m/s (hover to see current wind gust speed)